#timestamp,LO_Frequency,Hit,StdDev 
1636102815.7,286046998.1,N
1636102835.6,286046998.3,N
1636102855.4,286046998.7,N
1636102875.2,286046998.8,N
1636102895.1,286046998.0,N
1636102896.0,286046998.0,N
1636102915.8,286046997.4,N
1636102935.6,286046997.6,N
1636102955.5,286046997.5,N
1636102975.3,286046995.4,N
1636102995.2,286046995.5,N
1636103015.9,286046996.2,N
1636103035.7,286046996.3,N
1636103055.6,286046993.7,N
1636103075.4,286046994.1,N
1636103095.2,286046992.1,N
1636103115.1,286046991.7,N
1636103116.0,286046991.7,N
1636103135.8,286046993.6,N
1636103155.7,286046992.5,N
1636103175.5,286046990.7,N
1636103195.3,286046993.0,N
1636103215.2,286046990.6,N
1636103235.0,286046992.3,N
1636103235.9,286046992.3,N
1636103255.7,286046992.3,N
1636103275.6,286046992.7,N
1636103295.4,286046990.6,Y
1636103315.3,286046995.7,P
1636103335.1,286046995.3,P
1636103336.0,286046995.3,P
1636103355.8,286046993.7,Y
1636103375.7,286046999.0,P
1636103395.5,286046998.7,N
1636103415.4,286046998.1,N
1636103435.2,286046999.4,N
1636103455.0,286046996.9,N
1636103455.9,286046996.9,N
1636103475.8,286046996.5,N
1636103495.6,286046997.8,N
1636103515.4,286046996.9,N
1636103535.3,286046997.7,N
1636103555.1,286046997.6,N
1636103575.9,286046995.0,Y
1636103595.7,286046998.3,P
1636103615.5,286046999.0,N
1636103635.4,286046999.0,N
1636103655.2,286046996.7,Y
1636103705.1,286046998.8,E
1636103715.9,286046998.6,N
1636103735.7,286046998.4,P
1636103755.6,286046998.8,P
1636103775.4,286046999.0,Y
1636103795.3,286047000.3,P
1636103815.1,286046998.1,N
1636103816.0,286046998.1,N
1636103835.8,286046998.4,N
1636103855.7,286046999.6,N
1636103875.5,286046999.4,N
1636103895.4,286046998.7,N
1636103915.2,286046998.8,N
1636103935.0,286046999.3,N
1636103935.9,286046999.3,N
1636103955.8,286046999.2,N
1636103975.6,286046997.5,Y
1636103995.5,286046996.7,P
1636104015.3,286046999.1,N
1636104035.1,286046998.9,N
1636104055.9,286046999.4,N
1636104075.7,286046998.9,N
1636104095.5,286046998.7,N
1636104115.4,286046996.9,Y
1636104135.2,286046998.3,P
1636104155.1,286046998.7,P
1636104156.0,286046998.7,P
1636104175.8,286046996.8,Y
1636104195.6,286046998.2,P
1636104215.5,286047001.0,P
1636104235.3,286046996.7,N
1636104255.1,286046996.6,N
1636104275.9,286046999.6,N
1636104295.7,286046999.5,N
1636104315.6,286046998.1,N
1636104335.4,286046997.7,N
1636104355.2,286046999.2,N
1636104375.1,286046996.5,N
1636104376.0,286046996.5,N
1636104395.8,286046995.0,Y
1636104415.7,286046996.5,P
1636104435.5,286046999.5,N
1636104455.3,286046999.1,N
1636104475.2,286046999.6,N
1636104495.0,286046997.7,N
1636104495.9,286046997.7,N
1636104515.7,286046997.6,N
1636104535.6,286046998.0,N
1636104555.4,286046997.1,Y
1636104575.3,286046996.6,P
1636104595.1,286046996.6,P
1636104596.0,286046996.6,P
1636104615.8,286046996.8,Y
1636104635.7,286047000.0,P
1636104655.5,286047000.4,N
1636104675.4,286047001.1,N
1636104695.2,286047001.1,N
1636104715.0,286047001.2,N
1636104715.9,286047001.2,N
1636104735.8,286046998.5,N
1636104755.6,286047001.1,N
1636104775.4,286046998.1,N
1636104795.3,286046998.2,N
1636104815.1,286046998.1,N
1636104835.9,286046998.9,N
1636104855.7,286046999.4,N
1636104875.5,286046998.4,N
1636104895.4,286046999.1,N
1636104915.2,286046997.4,N
1636104935.0,286046997.4,N
1636104935.9,286046997.4,N
1636104955.8,286046995.3,Y
1636104975.6,286046999.2,P
1636104995.5,286046998.8,P
1636105015.3,286046999.2,P
1636105035.1,286046996.6,Y
1636105055.9,286046999.6,P
1636105075.7,286046997.3,P
1636105095.5,286046995.1,P
1636105115.4,286046995.7,N
1636105165.2,286046996.1,E
1636105175.2,286046996.8,N
1636105195.0,286046998.2,P
1636105195.9,286046998.2,N
1636105215.7,286046998.3,N
1636105235.6,286046998.3,N
1636105255.4,286046998.7,N
1636105275.3,286046999.4,N
1636105295.1,286046996.9,Y
1636105296.0,286046996.9,P
1636105315.8,286047001.0,N
1636105335.7,286047000.7,N
1636105355.5,286047000.4,N
1636105375.3,286047000.6,N
1636105395.2,286047000.9,N
1636105415.0,286047001.2,N
1636105415.9,286047001.2,N
1636105435.8,286046998.1,N
1636105455.6,286046998.1,N
1636105475.4,286046996.7,N
1636105495.3,286046997.3,N
1636105515.1,286046997.6,N
1636105535.8,286046999.5,N
1636105555.7,286046996.7,N
1636105575.5,286046999.6,N
1636105595.4,286046997.2,N
1636105615.2,286046997.3,N
1636105635.0,286046997.7,N
1636105635.9,286046997.7,N
1636105655.8,286046997.9,N
1636105675.6,286046995.3,N
1636105695.4,286046995.8,N
1636105715.3,286046995.7,N
1636105735.1,286046995.7,N
1636105755.9,286046996.4,N
1636105775.7,286046996.4,N
1636105795.5,286046996.3,N
1636105815.4,286046996.2,N
1636105835.2,286046993.6,Y
1636105855.0,286046995.0,P
1636105856.0,286046995.0,P
1636105875.8,286046997.6,N
1636105895.6,286046996.0,N
1636105915.5,286046993.4,Y
1636105935.3,286047001.0,P
1636105955.1,286046998.7,N
1636105975.9,286046999.1,N
1636105995.7,286046998.9,N
1636106015.6,286046998.2,N
1636106035.4,286046998.9,N
1636106055.2,286046999.3,N
1636106075.1,286046998.8,N
1636106076.0,286046998.8,N
1636106095.8,286047001.2,N
1636106115.6,286046999.3,N
1636106135.5,286046998.3,N
1636106155.3,286046998.4,N
1636106175.2,286047000.9,N
1636106195.9,286046999.3,N
1636106215.7,286046998.8,N
1636106235.6,286046999.0,N
1636106255.4,286046998.1,N
1636106275.2,286047001.2,N
1636106295.1,286046999.3,N
1636106296.0,286046999.3,N
1636106315.8,286046999.2,N
1636106335.7,286046999.5,N
1636106355.5,286047011.9,Y
1636106375.3,286046999.3,P
1636106395.2,286046998.4,P
